Regional Weather Roundup
Issued by NWS Sterling, VA

Home | Current Version | Previous Version | Text Only | Print | Product List | Glossary Off
Versions: 1 2 3 4 5 6 7 8 9 10 11 12 13 14 15 16 17 18 19 20 21 22 23 24 25 26 27

000
ASUS41 KLWX 191710
RWRLWX

REGIONAL WEATHER ROUNDUP
NATIONAL WEATHER SERVICE BALTIMORE MD/WASHINGTON DC
100 PM EDT SAT APR 19 2014

Note: "FAIR" indicates few or no clouds below 12,000 feet
with no significant weather and/or obstructions to visibility.
 TC=TEMPERATURE CELSIUS

 * =Non NWS site. Station does not report precipitation (e.g. rain,
    snow, etc.), thunder, or fog.

DCZ001-MDZ009-015-VAZ040>042-051-053>054-191800-
WASHINGTON METRO

CITY           SKY/WX    TMP DP  RH WIND       PRES   REMARKS
WASHINGTON NAT CLOUDY    67  38  34 N9        30.27F
DULLES         PTSUNNY   63  34  33 N12G20    30.27F
ANDREWS AFB    PTSUNNY   64  37  36 NE14      30.26F
FT BELVOIR     PTSUNNY   65  34  31 VRB3      30.27F
QUANTICO       PTSUNNY   62  38  40 NE13      30.28F
COLLEGE PARK*  PTSUNNY   64  34  32 N3        30.26F
LEESBURG*      PTSUNNY   64  41  42 NE12G18   30.28F
GAITHERSBURG*  MOSUNNY   64  34  32 N5        30.29F

$$

MDZ006>007-011-014-191800-
BALTIMORE METRO

CITY           SKY/WX    TMP DP  RH WIND       PRES   REMARKS
BWI AIRPORT    PTSUNNY   64  35  34 E9        30.26F
MD SCIENCE CTR   N/A     65  37  35 MISG      30.26F
MARTIN STATE   PTSUNNY   61  46  59 SE7       30.28F
ANNAPOLIS      MOSUNNY   59  35  40 N7        30.28F
FORT MEADE*    MOSUNNY   64  36  34 NE5       30.28F

$$

MDZ012-015-019>023-191800-
MARYLAND EASTERN SHORE

CITY           SKY/WX    TMP DP  RH WIND       PRES   REMARKS
OCEAN CITY     PTSUNNY   57  38  48 NE12      30.26F
SALISBURY      PTSUNNY   65  40  39 NE9       30.24F
BAY BRIDGE AP* MOSUNNY   61  43  51 W3        30.28S
CAMBRIDGE*     MOSUNNY   61  41  48 N9        30.25S
EASTON*        SUNNY     64  45  48 NE5       30.30F

$$

MDZ017>025-191800-
SOUTHERN MARYLAND

CITY           SKY/WX    TMP DP  RH WIND       PRES   REMARKS
PATUXENT RIVER CLOUDY    58  42  55 N9        30.26F
ST INIGOES     PTSUNNY   59  42  53 N8        30.26F
LEONARDTOWN*   PTSUNNY   57  37  47 NE6       30.28S

$$

MDZ003>005-191800-
NORTH CENTRAL MARYLAND

CITY           SKY/WX    TMP DP  RH WIND       PRES   REMARKS
FREDERICK*     NOT AVBL
HAGERSTOWN APT MOSUNNY   62  35  36 NE12G18   30.28F
WESTMINSTER*   MOSUNNY   63  21  20 N12G17    30.28S

$$

MDZ501>502-191800-
WESTERN MARYLAND

CITY           SKY/WX    TMP DP  RH WIND       PRES   REMARKS
OAKLAND*       MOSUNNY   54  21  28 NE8       30.29F
CUMBERLAND*    MOSUNNY   66  34  30 NE5       30.30F

$$

VAZ025>031-191800-
SHENANDOAH VALLEY

CITY           SKY/WX    TMP DP  RH WIND       PRES   REMARKS
WINCHESTER*    PTSUNNY   63  36  36 NE7       30.27F
STAUNTON*      CLOUDY    63  39  41 NE10G17   30.25F

$$

WVZ021-048>050-054>055-191800-
EASTERN WEST VIRGINIA PANHANDLE

CITY           SKY/WX    TMP DP  RH WIND       PRES   REMARKS
MARTINSBURG    MOSUNNY   65  34  31 NE9G18    30.28F
PETERSBURG*    CLOUDY    66  43  44 N6        30.29S

$$

VAZ036>039-050-191800-
CENTRAL FOOTHILLS

CITY           SKY/WX    TMP DP  RH WIND       PRES   REMARKS
CHARLOTTESVILL PTSUNNY   62  40  44 E13       30.24F
CULPEPER*      PTSUNNY   66  34  30 NE9       30.27F

$$

VAZ055>057-191800-
NORTH AND CENTRAL PIEDMONT

CITY           SKY/WX    TMP DP  RH WIND       PRES   REMARKS
FREDERICKSBRG* PTSUNNY   63  41  45 NE8       30.26F
STAFFORD*      PTSUNNY   64  39  39 NE17G23   30.30F

$$

NCZ024-NYZ072-PAZ021-071-VAZ022-071-191800-
OTHER REGIONAL OBSERVATIONS

CITY           SKY/WX    TMP DP  RH WIND       PRES   REMARKS
NEW YORK CITY  SUNNY     63  21  20 NW8       30.27F
PHILADELPHIA   PTSUNNY   66  28  24 N10       30.26F
PITTSBURGH     PTSUNNY   59  28  30 N13G20    30.32F
ROANOKE        CLOUDY    61  39  44 NE10      30.24S
RICHMOND       CLOUDY    63  39  41 NE13      30.24F
RALEIGH        LGT RAIN  50  46  86 NE10      30.20S FOG

$$

ANZ530>537-191800-
MARINE OBSERVATIONS

STATION/POSITION TIME  TEMP    WIND        PRES
                       AIR SEA DIR/SP/G
                 (UTC) (F)     (DEG/KT/KT) (MB)
THOMAS PT LIGHT  1700   53 53  360/  4/  4 1025.9F
BALT KEY BRIDGE  1700   54     140/  9/ 10 1025.0F
COVE POINT       1700   50     350/ 13/ 14 1024.9R
LEWISETTA        1700   54 54   70/  4/  6 1024.8R
SOLOMONS ISLAND  1700      52                N/A
PINEY POINT      1700           90/  4/  5   N/A

$$




USA.gov is the U.S. government's official web portal to all federal, state and local government web resources and services.